Location: *
(51.4660°N, 0.3360°W)
Time: 15:11:42
(UTC+00:00)

RESURS DK-1 - Pass Details

Date: 19 September 2019
Orbit: 557 x 561 km, 69.9° (Epoch: 13 October)

Event Time Altitude Azimuth Distance (km) Brightness Sun altitude
Rises 19:24:49 0° 333° (NNW) 2,760 6.6 -12.6°
Reaches altitude 10° 19:27:28 10° 350° (N) 1,860 5.4 -13.0°
Maximum altitude 19:30:40 21° 40° (NE) 1,289 4.0 -13.5°
Enters shadow 19:32:23 17° 73° (ENE) 1,473 4.0 -13.8°
